| time (UTC) | temp F | wind direction | speed MPH | gust MPH | rain 1hr in | rain 24hr in | rain mn in | humidity % | barometer mb |
| 20260505075518 | 66 | 0 | 0.0 | 3.0 | 0.00 | 0.00 | 0.00 | ||
| 20260505074015 | 67 | 0 | 1.0 | 8.0 | 0.00 | 0.00 | 0.00 | ||
| 20260505073516 | 67 | 0 | 1.0 | 7.0 | 0.00 | 0.00 | 0.00 | ||
| 20260505073016 | 67 | 0 | 2.0 | 7.0 | 0.00 | 0.00 | 0.00 | ||
| 20260505072516 | 67 | 0 | 2.0 | 8.0 | 0.00 | 0.00 | 0.00 | ||
| 20260505072021 | 67 | 351 | 3.0 | 8.0 | 0.00 | 0.00 | 0.00 | ||
| 20260505071514 | 67 | 359 | 2.0 | 6.0 | 0.00 | 0.00 | 0.00 | ||
| 20260505071013 | 67 | 0 | 1.0 | 10.0 | 0.00 | 0.00 | 0.00 | ||
| 20260505070514 | 67 | 358 | 1.0 | 10.0 | 0.00 | 0.00 | 0.00 | ||
| 20260505070013 | 68 | 349 | 1.0 | 10.0 | 0.00 | 0.00 | 0.00 | ||
| 20260505065515 | 68 | 0 | 2.0 | 10.0 | 0.00 | 0.00 | 0.00 | ||
| 20260505065016 | 68 | 0 | 5.0 | 12.0 | 0.00 | 0.00 | 0.00 | ||
| 20260505064012 | 68 | 0 | 7.0 | 18.0 | 0.00 | 0.00 | 0.00 | ||
| 20260505063514 | 68 | 0 | 6.0 | 13.0 | 0.00 | 0.00 | 0.00 | ||
| 20260505063013 | 68 | 328 | 8.0 | 14.0 | 0.00 | 0.00 | 0.00 | ||
| 20260505062512 | 68 | 0 | 10.0 | 14.0 | 0.00 | 0.00 | 0.00 | ||
| 20260505062014 | 69 | 359 | 8.0 | 13.0 | 0.00 | 0.00 | 0.00 | ||
| 20260505061507 | 69 | 359 | 3.0 | 16.0 | 0.00 | 0.00 | 0.00 | ||
| 20260505061012 | 69 | 0 | 7.0 | 16.0 | 0.00 | 0.00 | 0.00 | ||
| 20260505060512 | 69 | 0 | 9.0 | 14.0 | 0.00 | 0.00 | 0.00 | ||
| 20260505060013 | 69 | 359 | 8.0 | 13.0 | 0.00 | 0.00 | 0.00 | ||
| 20260505055513 | 69 | 359 | 2.0 | 8.0 | 0.00 | 0.00 | 0.00 | ||
| 20260505054508 | 70 | 0 | 3.0 | 7.0 | 0.00 | 0.00 | 0.00 | ||
| 20260505054012 | 70 | 358 | 1.0 | 11.0 | 0.00 | 0.00 | 0.00 | ||
| 20260505053513 | 70 | 359 | 6.0 | 11.0 | 0.00 | 0.00 | 0.00 | ||
| 20260505053014 | 70 | 0 | 4.0 | 12.0 | 0.00 | 0.00 | 0.00 | ||
| 20260505052513 | 70 | 0 | 5.0 | 13.0 | 0.00 | 0.00 | 0.00 | ||
| 20260505052015 | 70 | 359 | 5.0 | 13.0 | 0.00 | 0.00 | 0.00 | ||
| 20260505051505 | 71 | 0 | 4.0 | 13.0 | 0.00 | 0.00 | 0.00 | ||
| 20260505050507 | 71 | 0 | 2.0 | 11.0 | 0.00 | 0.00 | 0.00 | ||
| 20260505041005 | 73 | 359 | 7.0 | 20.0 | 0.00 | 0.00 | 0.00 | ||
| 20260505040505 | 73 | 0 | 8.0 | 20.0 | 0.00 | 0.00 | 0.00 | ||
| 20260505040005 | 73 | 0 | 13.0 | 19.0 | 0.00 | 0.00 | 0.00 | ||
| 20260505035505 | 73 | 359 | 10.0 | 19.0 | 0.00 | 0.00 | 0.00 | ||
| 20260505034500 | 73 | 358 | 13.0 | 20.0 | 0.00 | 0.00 | 0.00 | ||
| 20260505034006 | 74 | 358 | 10.0 | 19.0 | 0.00 | 0.00 | 0.00 | ||
| 20260505033507 | 74 | 0 | 12.0 | 19.0 | 0.00 | 0.00 | 0.00 | ||
| 20260505033011 | 74 | 0 | 7.0 | 15.0 | 0.00 | 0.00 | 0.00 | ||
| 20260505032514 | 74 | 359 | 11.0 | 15.0 | 0.00 | 0.00 | 0.00 | ||
| 20260505032016 | 74 | 355 | 7.0 | 14.0 | 0.00 | 0.00 | 0.00 | ||
| 20260505031507 | 74 | 350 | 6.0 | 14.0 | 0.00 | 0.00 | 0.00 | ||
| 20260505031009 | 74 | 355 | 7.0 | 14.0 | 0.00 | 0.00 | 0.00 | ||
| 20260505030510 | 75 | 0 | 6.0 | 14.0 | 0.00 | 0.00 | 0.00 | ||
| 20260505030013 | 75 | 0 | 6.0 | 14.0 | 0.00 | 0.00 | 0.00 | ||
| 20260505025010 | 75 | 352 | 6.0 | 15.0 | 0.00 | 0.00 | 0.00 | ||
| 20260505024512 | 75 | 353 | 7.0 | 14.0 | 0.00 | 0.00 | 0.00 | ||
| 20260505024011 | 75 | 0 | 8.0 | 14.0 | 0.00 | 0.00 | 0.00 | ||
| 20260505023511 | 76 | 351 | 6.0 | 18.0 | 0.00 | 0.00 | 0.00 | ||
| 20260505023016 | 76 | 359 | 7.0 | 18.0 | 0.00 | 0.00 | 0.00 | ||
| 20260505022515 | 76 | 356 | 7.0 | 17.0 | 0.00 | 0.00 | 0.00 | ||
| 20260505022017 | 76 | 0 | 12.0 | 17.0 | 0.00 | 0.00 | 0.00 | ||
| 20260505021508 | 77 | 356 | 9.0 | 17.0 | 0.00 | 0.00 | 0.00 | ||
| 20260505021007 | 77 | 354 | 10.0 | 20.0 | 0.00 | 0.00 | 0.00 | ||
| 20260505020509 | 77 | 357 | 8.0 | 21.0 | 0.00 | 0.00 | 0.00 | ||
| 20260505020009 | 78 | 355 | 10.0 | 21.0 | 0.00 | 0.00 | 0.00 | ||
| 20260505015509 | 78 | 359 | 10.0 | 16.0 | 0.00 | 0.00 | 0.00 | ||
| 20260505015014 | 78 | 359 | 5.0 | 16.0 | 0.00 | 0.00 | 0.00 | ||
| 20260505014009 | 79 | 0 | 10.0 | 19.0 | 0.00 | 0.00 | 0.00 | ||
| 20260505013511 | 79 | 342 | 10.0 | 19.0 | 0.00 | 0.00 | 0.00 | ||
| 20260505012015 | 80 | 0 | 9.0 | 19.0 | 0.00 | 0.00 | 0.00 | ||
| 20260505011506 | 80 | 349 | 8.0 | 16.0 | 0.00 | 0.00 | 0.00 | ||
| 20260505011011 | 80 | 357 | 5.0 | 16.0 | 0.00 | 0.00 | 0.00 | ||
| 20260505010513 | 80 | 357 | 6.0 | 17.0 | 0.00 | 0.00 | 0.00 | ||
| 20260505004524 | 80 | 359 | 5.0 | 16.0 | 0.00 | 0.00 | 0.00 | ||
| 20260505004014 | 80 | 359 | 8.0 | 18.0 | 0.00 | 0.00 | 0.00 | ||
| 20260505003514 | 80 | 0 | 9.0 | 18.0 | 0.00 | 0.00 | 0.00 | ||
| 20260505003015 | 80 | 352 | 8.0 | 15.0 | 0.00 | 0.00 | 0.00 | ||
| 20260505002517 | 79 | 353 | 5.0 | 18.0 | 0.00 | 0.00 | 0.00 | ||
| 20260505002019 | 79 | 0 | 10.0 | 18.0 | 0.00 | 0.00 | 0.00 | ||
| 20260505001511 | 80 | 0 | 5.0 | 18.0 | 0.00 | 0.00 | 0.00 | ||
| 20260505001010 | 80 | 355 | 9.0 | 19.0 | 0.00 | 0.00 | 0.00 | ||
| 20260505000511 | 80 | 359 | 8.0 | 19.0 | 0.00 | 0.00 | 0.00 | ||
| 20260505000014 | 80 | 0 | 4.0 | 12.0 | 0.00 | 0.00 | 0.00 | ||
| 20260504235513 | 80 | 358 | 6.0 | 17.0 | 0.00 | 0.00 | 0.00 | ||
| 20260504235020 | 80 | 357 | 8.0 | 17.0 | 0.00 | 0.00 | 0.00 | ||
| 20260504234012 | 79 | 359 | 11.0 | 21.0 | 0.00 | 0.00 | 0.00 | ||
| 20260504233513 | 79 | 348 | 9.0 | 21.0 | 0.00 | 0.00 | 0.00 | ||
| 20260504233015 | 79 | 0 | 13.0 | 21.0 | 0.00 | 0.00 | 0.00 | ||
| 20260504232515 | 80 | 359 | 8.0 | 19.0 | 0.00 | 0.00 | 0.00 | ||
| 20260504232016 | 80 | 354 | 10.0 | 21.0 | 0.00 | 0.00 | 0.00 | ||
| 20260504230515 | 80 | 359 | 11.0 | 23.0 | 0.00 | 0.00 | 0.00 | ||
| 20260504230016 | 81 | 356 | 8.0 | 21.0 | 0.00 | 0.00 | 0.00 | ||
| 20260504225518 | 81 | 353 | 13.0 | 21.0 | 0.00 | 0.00 | 0.00 | ||
| 20260504225019 | 81 | 352 | 7.0 | 19.0 | 0.00 | 0.00 | 0.00 | ||
| 20260504224512 | 81 | 359 | 6.0 | 18.0 | 0.00 | 0.00 | 0.00 | ||
| 20260504224013 | 81 | 347 | 10.0 | 23.0 | 0.00 | 0.00 | 0.00 | ||
| 20260504223515 | 81 | 346 | 10.0 | 23.0 | 0.00 | 0.00 | 0.00 | ||
| 20260504222503 | 81 | 0 | 10.0 | 22.0 | 0.00 | 0.00 | 0.00 | ||
| 20260504222007 | 81 | 0 | 10.0 | 22.0 | 0.00 | 0.00 | 0.00 | ||
| 20260504221529 | 81 | 359 | 9.0 | 22.0 | 0.00 | 0.00 | 0.00 | ||
| 20260504221001 | 81 | 353 | 12.0 | 22.0 | 0.00 | 0.00 | 0.00 | ||
| 20260504220503 | 81 | 343 | 8.0 | 22.0 | 0.00 | 0.00 | 0.00 | ||
| 20260504220001 | 81 | 0 | 13.0 | 23.0 | 0.00 | 0.00 | 0.00 | ||
| 20260504215027 | 81 | 357 | 17.0 | 23.0 | 0.00 | 0.00 | 0.00 | ||
| 20260504214500 | 82 | 359 | 8.0 | 21.0 | 0.00 | 0.00 | 0.00 | ||
| 20260504214001 | 81 | 0 | 7.0 | 21.0 | 0.00 | 0.00 | 0.00 | ||
| 20260504213504 | 81 | 359 | 4.0 | 21.0 | 0.00 | 0.00 | 0.00 | ||
| 20260504213002 | 81 | 358 | 9.0 | 21.0 | 0.00 | 0.00 | 0.00 | ||
| 20260504212029 | 81 | 353 | 8.0 | 18.0 | 0.00 | 0.00 | 0.00 | ||
| 20260504211503 | 81 | 359 | 9.0 | 22.0 | 0.00 | 0.00 | 0.00 | ||
| 20260504211005 | 81 | 352 | 8.0 | 22.0 | 0.00 | 0.00 | 0.00 | ||
| 20260504210504 | 81 | 0 | 10.0 | 21.0 | 0.00 | 0.00 | 0.00 | ||
| 20260504210006 | 81 | 357 | 10.0 | 21.0 | 0.00 | 0.00 | 0.00 | ||
| 20260504205506 | 81 | 356 | 12.0 | 21.0 | 0.00 | 0.00 | 0.00 | ||
| 20260504204505 | 81 | 359 | 11.0 | 21.0 | 0.00 | 0.00 | 0.00 | ||
| 20260504204006 | 81 | 355 | 11.0 | 21.0 | 0.00 | 0.00 | 0.00 | ||
| 20260504203506 | 81 | 359 | 6.0 | 18.0 | 0.00 | 0.00 | 0.00 | ||
| 20260504203004 | 81 | 0 | 10.0 | 21.0 | 0.00 | 0.00 | 0.00 | ||
| 20260504202026 | 81 | 0 | 10.0 | 17.0 | 0.00 | 0.00 | 0.00 | ||
| 20260504201019 | 80 | 13 | 9.0 | 15.0 | 0.00 | 0.00 | 0.00 | ||
| 20260504200520 | 80 | 350 | 7.0 | 15.0 | 0.00 | 0.00 | 0.00 | ||
| 20260504195505 | 80 | 352 | 7.0 | 25.0 | 0.00 | 0.00 | 0.00 | ||
| 20260504195012 | 80 | 345 | 11.0 | 25.0 | 0.00 | 0.00 | 0.00 | ||
| 20260504194008 | 79 | 357 | 13.0 | 19.0 | 0.00 | 0.00 | 0.00 | ||
| 20260504193511 | 79 | 358 | 6.0 | 18.0 | 0.00 | 0.00 | 0.00 | ||
| 20260504193012 | 79 | 356 | 8.0 | 18.0 | 0.00 | 0.00 | 0.00 | ||
| 20260504192514 | 79 | 344 | 7.0 | 15.0 | 0.00 | 0.00 | 0.00 | ||
| 20260504192014 | 79 | 0 | 7.0 | 18.0 | 0.00 | 0.00 | 0.00 | ||
| 20260504191507 | 78 | 0 | 11.0 | 19.0 | 0.00 | 0.00 | 0.00 | ||
| 20260504191009 | 78 | 359 | 11.0 | 19.0 | 0.00 | 0.00 | 0.00 | ||
| 20260504190509 | 78 | 345 | 5.0 | 14.0 | 0.00 | 0.00 | 0.00 | ||
| 20260504190008 | 77 | 349 | 7.0 | 14.0 | 0.00 | 0.00 | 0.00 | ||
| 20260504185508 | 77 | 357 | 3.0 | 15.0 | 0.00 | 0.00 | 0.00 | ||
| 20260504185011 | 77 | 357 | 5.0 | 16.0 | 0.00 | 0.00 | 0.00 | ||
| 20260504184501 | 76 | 355 | 5.0 | 16.0 | 0.00 | 0.00 | 0.00 | ||
| 20260504184007 | 76 | 0 | 8.0 | 18.0 | 0.00 | 0.00 | 0.00 | ||
| 20260504183508 | 76 | 353 | 10.0 | 19.0 | 0.00 | 0.00 | 0.00 | ||
| 20260504183008 | 76 | 348 | 12.0 | 18.0 | 0.00 | 0.00 | 0.00 | ||
| 20260504182508 | 76 | 357 | 7.0 | 17.0 | 0.00 | 0.00 | 0.00 | ||
| 20260504182010 | 75 | 0 | 9.0 | 17.0 | 0.00 | 0.00 | 0.00 | ||
| 20260504181531 | 75 | 352 | 8.0 | 17.0 | 0.00 | 0.00 | 0.00 | ||
| 20260504181002 | 75 | 359 | 11.0 | 17.0 | 0.00 | 0.00 | 0.00 | ||
| 20260504180503 | 75 | 0 | 9.0 | 18.0 | 0.00 | 0.00 | 0.00 | ||
| 20260504180003 | 74 | 355 | 10.0 | 19.0 | 0.00 | 0.00 | 0.00 | ||
| 20260504175502 | 74 | 0 | 10.0 | 19.0 | 0.00 | 0.00 | 0.00 | ||
| 20260504174531 | 74 | 359 | 5.0 | 20.0 | 0.00 | 0.00 | 0.00 | ||
| 20260504174002 | 74 | 342 | 9.0 | 20.0 | 0.00 | 0.00 | 0.00 | ||
| 20260504173501 | 74 | 359 | 4.0 | 13.0 | 0.00 | 0.00 | 0.00 | ||
| 20260504173009 | 73 | 0 | 10.0 | 14.0 | 0.00 | 0.00 | 0.00 | ||
| 20260504172510 | 73 | 355 | 8.0 | 14.0 | 0.00 | 0.00 | 0.00 | ||
| 20260504172012 | 73 | 356 | 4.0 | 17.0 | 0.00 | 0.00 | 0.00 | ||
| 20260504171503 | 73 | 347 | 8.0 | 17.0 | 0.00 | 0.00 | 0.00 | ||
| 20260504171004 | 72 | 358 | 6.0 | 15.0 | 0.00 | 0.00 | 0.00 | ||
| 20260504170507 | 72 | 358 | 6.0 | 13.0 | 0.00 | 0.00 | 0.00 | ||
| 20260504151020 | 67 | 0 | 2.0 | 8.0 | 0.00 | 0.00 | 0.00 | ||
| 20260504150518 | 67 | 354 | 3.0 | 8.0 | 0.00 | 0.00 | 0.00 | ||
| 20260504141003 | 67 | 358 | 4.0 | 8.0 | 0.00 | 0.00 | 0.00 | ||
| 20260504140504 | 67 | 5 | 2.0 | 7.0 | 0.00 | 0.00 | 0.00 | ||
| 20260504110519 | 70 | 0 | 0.0 | 6.0 | 0.00 | 0.00 | 0.00 | ||
| 20260504100520 | 72 | 332 | 1.0 | 5.0 | 0.00 | 0.00 | 0.00 | ||
| 20260504081521 | 73 | 192 | 0.0 | 2.0 | 0.00 | 0.00 | 0.00 |